This is the latest recevied weather packets stored in our database for station/object WC4PEM-15. If no packets are shown the sender has not sent any weather packets the latest 10 day(s).
| Time | Temp. | Humidity | Pressure | Rain* | Wind** | Luminosity | Snow |
|---|---|---|---|---|---|---|---|
| 1787438938 | 25.56° C | 87% | 1015.1 hPa | 0 mm | - | - | - |
| 1787438829 | 25.56° C | 87% | 1015.1 hPa | 0 mm | - | - | - |
| 1787438681 | 25.56° C | 87% | 1014.7 hPa | 0 mm | - | - | - |
| 1787438529 | 25.56° C | 87% | 1014.7 hPa | 0 mm | - | - | - |
| 1787438366 | 25° C | 85% | 1014.5 hPa | 0 mm | - | - | - |
| 1787438229 | 25° C | 85% | 1014.5 hPa | 0 mm | - | - | - |
| 1787437986 | 25° C | 85% | 1014.5 hPa | 0 mm | - | - | - |
| 1787437929 | 25° C | 85% | 1014.5 hPa | 0 mm | - | - | - |
| 1787437791 | 25° C | 84% | 1014.5 hPa | 0 mm | - | - | - |
| 1787437629 | 25° C | 84% | 1014.5 hPa | 0 mm | - | - | - |
| 1787437329 | 25° C | 83% | 1014.7 hPa | 0 mm | - | - | - |
| 1787437076 | 25° C | 84% | 1014.8 hPa | 0 mm | - | - | - |
| 1787437029 | 25° C | 84% | 1014.8 hPa | 0 mm | - | - | - |
| 1787436855 | 25° C | 82% | 1014.9 hPa | 0 mm | - | - | - |
| 1787436729 | 25° C | 82% | 1014.9 hPa | 0 mm | - | - | - |
| 1787436520 | 25° C | 84% | 1015.2 hPa | 0 mm | - | - | - |
| 1787436429 | 25° C | 84% | 1015.2 hPa | 0 mm | - | - | - |
| 1787436129 | 25° C | 90% | 1015.4 hPa | 0 mm | - | - | - |
| 1787435944 | 25° C | 91% | 1015.2 hPa | 0 mm | - | - | - |
| 1787435829 | 25° C | 91% | 1015.2 hPa | 0 mm | - | - | - |
| 1787435529 | 24.44° C | 90% | 1015.1 hPa | 0 mm | - | - | - |
| 1787435320 | 24.44° C | 89% | 1015 hPa | 0 mm | - | - | - |
| 1787435229 | 24.44° C | 89% | 1015 hPa | 0 mm | - | - | - |
| 1787435031 | 24.44° C | 88% | 1015.2 hPa | 0 mm | - | - | - |
| 1787434929 | 24.44° C | 88% | 1015.2 hPa | 0 mm | - | - | - |
* Rain latest hour (hover to see other rain measurements)
** Current wind speed in m/s (hover to see current wind gust speed)